Zurück zum Katalog

STARLINK-32419

AktivKommunikationVLEO
NORAD 61637·PAYLOAD·🇺🇸 United States

Gestartet Oct 23, 2024 von Cape Canaveral Space Force Station

Loading…

Nächste Überflüge (nächste 24 Stunden)

TLE

AktuellSource: CelesTrak SupGP

Epoche: Sep 14, 2026, 21:26 UTC

1 61637C 24191S   26257.89354167 -.00019335  00000+0 -70031-3 0  2578
2 61637  42.9995 166.1434 0001373 264.0938 352.3563 15.27588178    14

Verfolge STARLINK-32419 in Echtzeit mit AllMySat

Download on the App Store